Probability
0 0 0 0 0 0 0 0 0 0 0 0 0 0 0 0 0 0 0 0 0 0 0 0 0 0 0 0 0 0 0 0 0 0 0 0 0 0 0 0 1 1 1
0 0 0 0 0 0 0 0 0 0 0 0 0 0 0 0 0 0 0 0 0 0 0 0 0 0 0 0 0 0 0 0 0 0 0 0 0 0 0 0 0 0 0
0 0 0 0 0 0 0 0 0 0 0 0 0 0 0 0 0 0 0 0 0 0 0 0 0 0 0 0 0 0 0 0 0 0 0 0 0 0 0 0 0 0 0
0 0 0 0 0 0 0 0 0 0 0 0 0 0 0 0 0 0 0 0 0 0 0 0 0 0 0 0 0 0 0 0 0 0 0 0 0 0 0 0 0 0 0
0 0 0 0 0 0 0 0 0 0 0 0 0 0 0 0 0 0 0 0 0 0 0 0 0 0 0 0 0 0 0 0 0 0 0 0 0 0 0 0 0 0 0
0 0 0 0 0 0 0 0 0 0 0 0 0 0 0 0 0 0 0 0 0 0 0 0 0 0 0 0 0 0 0 0 0 0 0 0 1 1 1 0 0 0 0
0 0 0 0 0 0 0 0 0 0 0 0 0 0 0 0 0 0 0 0 0 0 0 0 0 0 0 0 0 0 0 0 0 0 0 0 1 2 2 1 0 0 0
0 0 0 0 0 0 0 0 0 0 0 0 0 0 0 0 0 0 0 0 0 0 0 0 0 0 0 0 0 0 0 0 0 0 0 0 0 1 2 2 1 0 0
0 0 0 0 0 0 0 0 0 0 0 0 0 0 0 0 0 0 0 0 0 0 0 0 0 0 0 0 0 0 0 0 0 0 0 0 0 0 1 2 1 0 0
0 0 0 0 0 0 0 0 0 0 0 0 0 0 0 0 0 0 0 0 0 0 0 0 0 0 0 0 0 0 0 0 0 0 0 0 0 0 0 1 1 0 0
0 0 0 0 0 0 0 0 0 0 0 0 0 0 0 0 0 0 0 0 0 0 0 0 0 0 0 0 0 0 0 0 0 0 0 0 0 0 0 0 0 0 0
0 0 0 0 0 0 0 0 0 0 0 0 0 0 0 0 0 0 0 0 0 0 0 0 0 0 0 0 0 0 0 0 0 0 0 0 0 0 0 0 0 0 0
0 0 0 0 0 0 0 0 0 0 0 0 0 0 0 0 0 0 0 0 0 0 0 0 0 0 0 0 0 0 0 0 0 0 0 0 0 0 0 0 0 0 0
0 0 0 0 0 0 0 0 0 0 0 0 0 0 0 0 0 0 0 0 0 0 0 0 0 0 0 0 0 0 0 0 0 0 0 0 0 0 0 0 0 0 0
0 0 0 0 0 0 0 0 0 0 0 0 0 0 0 0 0 0 0 0 0 0 0 0 0 0 0 0 0 0 0 0 0 0 0 0 0 0 0 0 0 0 0
0 0 0 0 0 0 0 0 0 0 0 0 0 0 0 0 0 0 0 0 0 0 0 0 0 0 0 0 0 0 0 0 0 0 0 0 0 0 0 0 0 0 0
0 0 0 0 0 0 0 0 0 0 0 0 0 0 0 0 0 0 0 0 0 0 0 0 0 0 0 0 0 0 0 0 0 0 0 0 0 0 0 0 0 0 0
0 0 0 0 0 0 0 0 0 0 0 0 0 0 0 0 0 0 0 0 0 0 0 0 0 0 0 0 0 0 0 0 0 0 0 0 0 0 0 0 0 0 0
0 0 0 0 0 0 0 0 0 0 0 0 0 0 0 0 0 0 0 0 0 0 0 0 0 0 0 0 0 0 0 0 0 0 0 0 0 0 0 0 0 0 0
0 0 0 0 0 0 0 0 0 0 0 0 0 0 0 0 0 0 0 0 0 0 0 0 0 0 0 0 0 0 0 0 0 0 0 0 0 0 0 0 0 0 0
0 0 0 0 0 0 0 0 0 0 0 0 0 0 0 0 0 0 0 0 0 0 0 0 0 0 0 0 0 0 0 0 0 0 0 0 0 0 0 0 0 0 0
0 0 0 0 0 0 0 0 0 0 0 0 0 0 0 0 0 0 0 0 0 0 0 0 0 0 0 0 0 0 0 0 0 0 0 0 0 0 0 0 0 0 0
0 0 0 0 0 0 0 0 0 0 0 0 0 0 0 0 0 0 0 0 0 0 0 0 0 0 0 0 0 0 0 0 0 0 0 0 0 0 0 0 0 0 0
0 0 0 0 0 0 0 0 0 0 0 0 0 0 0 0 0 0 0 0 0 0 0 0 0 0 0 0 0 0 0 0 0 0 0 0 0 0 0 0 0 0 0
0 0 0 0 0 0 0 0 0 0 0 0 0 0 0 0 0 0 0 0 0 0 0 0 0 0 0 0 0 0 0 0 0 0 0 0 0 0 0 0 0 0 0
0 0 0 0 0 0 0 0 0 0 0 0 0 0 0 0 0 0 0 0 0 0 0 0 0 0 0 0 0 0 0 0 0 0 0 0 0 0 0 0 0 0 0
Wind_Speed
2 2 2 2 3 3 3 3 4 5 5 5 5 5 5 5 4 4 3 9 10 10 9 10 10 9 10 10 10 10 10 10 10 10 11 10 10 9 9 8 9 9 9
2 2 2 2 3 3 3 3 4 4 4 4 5 5 5 4 4 5 4 6 10 10 9 10 10 10 9 10 10 10 10 10 10 11 11 11 11 10 10 10 10 10 10
2 2 3 3 2 3 4 4 5 4 4 4 5 5 4 4 4 5 5 4 5 8 10 10 10 9 10 10 9 9 10 10 10 11 11 11 11 11 10 10 11 11 11
3 3 3 3 3 3 3 4 4 4 4 4 4 4 4 4 4 4 4 4 4 4 6 10 9 9 9 10 10 9 10 10 11 11 11 11 11 10 10 10 10 10 11
3 3 3 2 3 3 3 3 3 3 4 4 4 4 4 3 3 4 4 4 4 4 4 6 9 9 9 9 9 9 9 10 10 11 11 11 11 10 10 10 10 10 10
3 3 3 3 3 3 3 3 4 4 3 3 4 4 4 3 3 3 3 3 4 4 4 5 5 6 9 9 9 9 8 8 9 10 10 11 11 11 10 10 10 10 10
3 3 3 3 3 3 3 4 4 4 3 2 3 3 3 4 4 3 3 3 4 4 4 4 3 3 3 7 9 8 8 7 8 9 9 9 10 10 10 10 10 10 10
2 3 3 3 3 3 3 3 3 2 2 2 2 2 2 3 4 4 3 3 3 3 3 4 4 3 3 2 5 8 7 7 7 7 8 8 9 9 10 10 9 10 10
2 2 3 3 3 3 3 2 2 3 2 1 2 3 3 1 1 3 3 3 3 3 2 3 3 3 3 3 3 5 7 6 6 6 6 7 8 8 9 9 9 9 9
2 2 2 2 2 2 2 2 2 2 3 1 1 2 2 2 2 1 3 3 3 3 3 3 3 3 3 3 4 6 7 6 7 6 6 6 7 7 8 8 9 8 8
2 2 2 2 2 2 2 2 2 2 2 2 2 1 2 2 2 2 0 3 3 3 2 2 2 3 3 3 3 5 8 7 7 7 7 7 7 7 8 8 8 8 8
1 1 2 2 2 2 2 2 2 2 2 2 2 2 2 2 1 2 2 0 1 2 2 2 2 2 2 3 4 6 7 7 7 7 7 7 7 7 7 8 8 8 8
0 0 1 1 1 1 2 2 2 2 2 2 2 1 1 1 2 2 3 1 1 2 2 2 2 2 2 2 3 5 6 6 6 7 7 7 7 7 7 7 8 8 9
1 1 1 1 1 1 2 2 2 2 2 2 2 2 1 1 2 2 3 3 2 2 2 2 2 2 2 2 3 4 3 5 6 6 6 7 7 7 7 7 7 8 7
1 1 2 2 2 2 2 2 2 2 2 2 2 2 2 1 1 1 2 2 3 2 1 2 2 2 2 1 3 2 2 3 4 5 6 6 7 6 6 7 7 7 7
1 2 2 2 2 2 2 2 2 2 3 2 1 2 2 1 2 2 2 2 2 3 1 1 1 1 2 2 3 2 2 4 4 4 5 5 5 6 6 6 6 6 6
2 2 2 2 2 2 2 2 2 3 3 2 2 2 2 2 2 1 2 2 2 2 2 1 1 1 1 2 2 2 2 2 2 3 3 4 4 5 5 5 5 6 6
2 2 2 2 2 2 2 2 2 2 3 2 2 2 1 2 2 1 2 2 1 2 3 2 0 1 1 1 1 2 2 2 1 3 3 3 4 4 4 5 5 5 5
2 2 2 3 2 2 2 2 3 3 2 2 2 2 1 2 1 1 1 1 1 1 2 2 1 0 1 1 2 2 2 2 1 2 2 3 3 3 4 4 4 4 4
2 2 2 2 2 2 3 3 3 3 2 2 2 1 1 2 2 1 2 2 2 2 2 2 1 0 1 1 1 1 2 2 2 2 2 2 2 3 3 3 3 3 2
2 2 2 2 2 2 3 4 3 3 2 2 1 1 1 1 2 2 2 2 3 2 2 2 1 0 0 1 1 1 1 1 1 1 1 2 2 2 3 3 3 3 2
2 2 2 3 2 2 3 5 5 3 3 2 2 1 0 1 1 2 3 4 5 4 3 2 1 1 2 1 0 0 0 1 2 1 1 2 1 2 2 2 3 3 2
2 2 2 2 2 2 4 5 6 4 3 2 2 1 1 1 1 2 2 2 2 3 5 4 3 3 2 2 2 1 1 1 2 1 0 2 1 2 3 3 4 4 3
3 2 2 2 2 2 4 5 6 4 3 2 2 2 2 1 1 3 2 2 1 1 1 2 2 3 2 2 3 2 2 1 1 1 0 2 2 2 3 2 4 4 4
3 2 2 2 2 2 3 5 6 4 3 2 1 1 2 2 2 4 3 2 1 1 1 1 1 0 0 1 3 2 1 1 2 2 0 1 2 2 2 2 3 4 4
3 3 2 2 3 2 3 5 6 3 3 1 1 1 2 2 2 4 3 3 2 1 0 1 1 2 2 1 2 2 2 1 1 2 1 1 1 1 2 2 2 2 3
Wind_Direction
61 52 47 46 48 57 68 69 72 72 71 66 63 64 59 50 43 38 30 51 58 61 64 67 70 73 74 72 70 68 67 64 64 64 63 61 59 58 55 54 52 49 46
79 74 62 53 53 60 68 75 77 75 71 69 63 56 52 46 40 40 33 35 48 54 56 57 61 64 69 71 69 69 67 66 65 64 63 60 57 56 55 56 53 49 46
84 90 78 64 59 69 77 79 73 71 74 69 59 51 48 43 41 38 35 31 31 43 50 55 55 57 61 64 67 69 67 66 65 63 62 61 59 57 55 54 53 51 49
89 90 79 69 69 73 79 85 79 74 67 66 60 45 42 41 40 40 42 39 35 31 39 50 51 52 57 59 61 65 69 69 68 64 60 59 59 58 55 54 51 50 47
83 92 84 76 78 77 72 87 75 79 81 75 72 54 40 40 32 46 46 42 37 33 30 36 43 47 51 52 54 57 64 69 70 68 64 59 58 58 57 54 51 50 48
86 91 90 82 83 85 73 77 83 70 76 80 80 63 44 37 33 40 40 39 36 36 36 37 33 33 42 45 47 51 56 62 71 70 67 62 57 57 56 54 51 50 49
96 99 100 90 87 92 95 95 92 81 68 70 77 53 31 38 42 35 35 38 34 32 35 36 36 30 25 33 37 45 50 58 67 69 67 63 58 56 55 53 52 52 50
93 111 114 119 111 104 94 91 96 96 68 54 95 87 32 8 16 28 29 36 30 28 36 40 42 38 29 20 25 37 40 51 63 67 68 64 60 57 53 51 51 53 51
68 89 110 121 124 120 124 118 111 113 115 48 62 119 126 190 337 0 19 26 23 25 26 32 40 33 31 31 17 27 35 41 56 65 67 64 60 55 52 49 50 50 49
58 72 96 113 119 117 128 138 124 123 124 117 57 60 108 148 137 10 352 7 20 28 35 38 35 30 30 30 25 32 38 42 48 56 62 59 55 54 51 49 51 49 47
52 73 92 107 113 115 127 117 110 117 127 134 133 113 85 70 97 131 24 344 3 10 24 32 35 29 26 28 23 40 44 44 46 47 50 51 49 48 48 50 50 46 46
34 62 99 105 115 120 126 123 116 120 122 120 118 120 138 143 152 133 138 359 356 343 10 25 33 26 23 26 31 43 45 45 47 47 49 47 44 42 43 45 44 44 44
22 4 104 113 118 133 130 120 113 112 119 121 127 130 141 145 138 133 128 129 59 347 3 15 12 17 19 26 25 33 43 45 48 51 52 48 45 41 40 40 40 42 41
199 182 125 118 114 127 131 121 108 109 110 111 111 120 114 106 124 135 142 135 97 23 14 349 356 5 4 16 19 29 35 41 49 53 51 49 45 42 40 37 39 38 37
180 157 138 124 109 107 115 115 104 105 105 97 103 103 91 79 92 111 124 136 137 128 314 317 336 346 359 17 23 34 26 39 50 51 51 49 45 43 39 39 41 39 38
170 150 145 139 123 114 111 109 102 101 99 87 93 92 80 78 78 83 108 106 116 137 153 275 278 322 360 31 41 38 36 43 47 50 50 49 46 45 42 38 35 34 32
173 170 162 150 146 139 132 128 126 121 112 95 84 98 89 95 90 82 90 99 102 117 133 284 329 352 24 24 10 22 33 29 28 45 41 44 44 43 40 34 32 30 27
179 172 151 145 150 148 144 152 144 128 130 127 115 100 84 100 96 98 107 112 123 132 138 148 340 2 5 352 7 24 25 36 26 42 35 36 35 34 32 28 28 26 23
148 145 144 151 160 157 149 151 143 132 132 134 134 134 136 118 105 111 125 127 130 116 120 134 138 4 355 4 20 20 17 3 1 31 27 27 25 21 20 18 16 17 23
156 159 158 162 163 158 151 144 134 132 129 119 121 138 154 152 149 147 130 131 125 111 112 119 123 35 345 341 24 14 354 350 342 360 2 356 5 7 3 357 353 0 14
166 162 147 145 149 153 161 152 147 146 144 126 95 106 148 154 159 157 141 143 134 122 119 123 130 87 326 334 300 286 290 328 320 342 340 331 344 344 338 331 328 327 337
155 139 146 152 156 173 160 157 146 144 145 143 142 130 103 105 131 134 142 145 144 141 150 144 159 195 246 244 242 229 241 350 307 321 343 310 351 307 300 294 311 316 310
155 148 155 155 173 190 165 159 154 145 145 153 159 150 131 94 96 108 106 112 149 161 158 155 169 209 218 215 185 211 230 235 245 269 33 294 316 300 297 305 316 320 320
160 168 169 173 178 196 172 164 153 142 137 151 169 173 166 177 146 136 116 95 69 28 195 174 192 221 228 203 188 197 206 255 280 301 120 271 295 293 307 304 311 313 317
161 165 160 166 168 198 169 159 146 137 137 156 168 162 175 190 187 143 127 124 62 347 4 84 136 233 240 164 143 112 99 54 299 290 188 244 287 302 298 294 308 313 314
165 156 150 165 169 185 172 162 152 141 146 160 167 202 203 195 188 158 150 152 186 255 326 31 32 21 25 78 141 161 173 181 258 276 254 223 275 320 304 298 317 318 315